DW2671 Weather Reports


time (UTC)temp
F
wind
direction
speed
knots
gust
knots
rain 1hr
in
rain 24hr
in
rain mn
in
humidity
%
barometer
mb
20260422055104 35 67 1.7 1.7 0.00 0.00 0.00 87 1023.3
20260422053106 34 197 0.0 1.7 0.00 0.00 0.00 87 1024.0
20260422052105 34 202 0.0 1.7 0.00 0.00 0.00 87 1024.0
20260422051104 35 180 0.0 0.9 0.00 0.00 0.00 85 1024.4
20260422050105 35 180 0.9 1.7 0.00 0.00 0.00 85 1024.4
20260422045104 35 180 0.0 1.7 0.00 0.00 0.00 85 1024.4
20260422043105 35 157 0.9 1.7 0.00 0.00 0.00 84 1024.7
20260422042105 36 157 0.0 1.7 0.00 0.00 0.00 82 1024.7
20260422040104 37 157 0.9 1.7 0.00 0.00 0.00 81 1024.7
20260422035105 37 157 0.9 1.7 0.00 0.00 0.00 80 1024.7
20260422034105 37 173 0.9 2.6 0.00 0.00 0.00 80 1024.7
20260422033104 37 200 0.0 1.7 0.00 0.00 0.00 79 1024.7
20260422032104 37 157 2.6 2.6 0.00 0.00 0.00 80 1024.7
20260422031104 37 163 0.0 2.6 0.00 0.00 0.00 78 1024.7
20260422030104 37 180 0.9 5.2 0.00 0.00 0.00 78 1024.7
20260422025104 37 190 0.9 5.2 0.00 0.00 0.00 77 1024.7
20260422024104 38 158 0.9 5.2 0.00 0.00 0.00 75 1024.7
20260422023104 38 152 0.0 1.7 0.00 0.00 0.00 75 1024.7
20260422022104 38 135 1.7 2.6 0.00 0.00 0.00 73 1024.7
20260422021104 39 157 0.9 2.6 0.00 0.00 0.00 73 1024.7
20260422020105 39 112 0.9 5.2 0.00 0.00 0.00 71 1025.0
20260422015103 39 166 1.7 1.7 0.00 0.00 0.00 71 1025.0
20260422014104 39 156 0.9 1.7 0.00 0.00 0.00 69 1025.0
20260422012105 40 135 1.7 5.2 0.00 0.00 0.00 66 1025.0
20260422010104 40 172 1.7 7.0 0.00 0.00 0.00 64 1024.7
20260422005104 40 135 1.7 1.7 0.00 0.00 0.00 64 1024.7
20260422004104 40 163 2.6 5.2 0.00 0.00 0.00 62 1024.7
20260422003103 40 112 2.6 5.2 0.00 0.00 0.00 60 1024.7
20260422002104 41 135 0.9 1.7 0.00 0.00 0.00 57 1024.7
20260422001104 41 135 0.9 1.7 0.00 0.00 0.00 56 1024.7
20260422000104 42 135 0.9 5.2 0.00 0.00 0.00 54 1024.7
20260421234104 43 133 1.7 5.2 0.00 0.00 0.00 52 1024.7
20260421233104 44 129 2.6 6.1 0.00 0.00 0.00 51 1024.7
20260421232105 44 116 2.6 7.8 0.00 0.00 0.00 49 1024.7
20260421231104 46 99 2.6 8.7 0.00 0.00 0.00 45 1024.7
20260421230104 46 162 3.5 12.2 0.00 0.00 0.00 44 1024.7
20260421225105 47 187 2.6 7.8 0.00 0.00 0.00 42 1024.7
20260421224106 48 141 5.2 7.8 0.00 0.00 0.00 41 1025.0
20260421223104 49 170 5.2 7.0 0.00 0.00 0.00 40 1025.0
20260421222104 50 140 1.7 10.4 0.00 0.00 0.00 40 1025.0
20260421221105 50 139 5.2 7.0 0.00 0.00 0.00 38 1025.0
20260421220104 51 173 3.5 7.0 0.00 0.00 0.00 37 1025.0
20260421215103 51 187 6.1 13.0 0.00 0.00 0.00 37 1025.0
20260421214104 51 167 3.5 12.2 0.00 0.00 0.00 37 1025.0
20260421213104 52 198 3.5 7.0 0.00 0.00 0.00 36 1025.0
20260421212104 51 159 5.2 8.7 0.00 0.00 0.00 36 1025.4
20260421211104 53 247 4.3 7.8 0.00 0.00 0.00 25 1025.4
20260421210104 53 112 1.7 7.8 0.00 0.00 0.00 28 1025.0
20260421205104 52 279 3.5 8.7 0.00 0.00 0.00 27 1025.4
20260421204105 52 293 2.6 7.0 0.00 0.00 0.00 29 1025.4
20260421203103 52 292 4.3 7.0 0.00 0.00 0.00 26 1025.4
20260421202105 52 223 3.5 8.7 0.00 0.00 0.00 27 1025.7
20260421201105 52 315 3.5 8.7 0.00 0.00 0.00 26 1025.7
20260421200105 53 264 5.2 10.4 0.00 0.00 0.00 26 1025.7
20260421195104 53 247 2.6 7.8 0.00 0.00 0.00 26 1025.7
20260421194104 53 202 2.6 7.0 0.00 0.00 0.00 26 1025.7
20260421193105 52 135 1.7 10.4 0.00 0.00 0.00 28 1025.7
20260421192104 51 271 4.3 7.8 0.00 0.00 0.00 27 1025.7
20260421191104 51 298 2.6 10.4 0.00 0.00 0.00 29 1026.0
20260421190105 52 253 1.7 7.8 0.00 0.00 0.00 31 1026.0
20260421185104 52 202 0.9 8.7 0.00 0.00 0.00 31 1026.4
20260421184103 51 157 1.7 6.1 0.00 0.00 0.00 31 1026.4
20260421183105 50 271 5.2 13.0 0.00 0.00 0.00 29 1026.7
20260421182104 50 276 6.1 8.7 0.00 0.00 0.00 27 1026.7
20260421180105 50 354 2.6 10.4 0.00 0.00 0.00 29 1027.1
20260421175105 49 72 1.7 7.8 0.00 0.00 0.00 36 1027.1
20260421174104 48 237 5.2 12.2 0.00 0.00 0.00 30 1027.1
20260421173103 49 313 6.1 7.8 0.00 0.00 0.00 29 1027.1
20260421171103 49 68 0.9 7.0 0.00 0.00 0.00 37 1027.4
20260421170104 48 92 1.7 7.0 0.00 0.00 0.00 31 1027.4
20260421165104 48 75 2.6 7.0 0.00 0.00 0.00 31 1027.7
20260421164104 48 90 4.3 6.1 0.00 0.00 0.00 31 1028.1
20260421163103 47 172 2.6 7.0 0.00 0.00 0.00 32 1028.1
20260421162103 47 355 1.7 10.4 0.00 0.00 0.00 33 1028.4
20260421161105 47 151 4.3 8.7 0.00 0.00 0.00 30 1028.4
20260421160105 47 196 4.3 7.8 0.00 0.00 0.00 30 1028.4
20260421154104 46 225 4.3 10.4 0.00 0.00 0.00 34 1029.1
20260421152106 47 292 3.5 12.2 0.00 0.00 0.00 31 1029.4
20260421151105 47 353 3.5 7.0 0.00 0.00 0.00 31 1029.1
20260421150103 47 16 2.6 6.1 0.00 0.00 0.00 36 1029.1
20260421144104 46 278 0.9 2.6 0.00 0.00 0.00 41 1029.4
20260421143105 46 9 0.9 5.2 0.00 0.00 0.00 37 1029.4
20260421142105 46 34 0.9 6.1 0.00 0.00 0.00 38 1029.4
20260421141105 45 0 0.9 12.2 0.00 0.00 0.00 37 1029.8
20260421140104 45 195 1.7 5.2 0.00 0.00 0.00 33 1029.4
20260421135104 45 254 2.6 6.1 0.00 0.00 0.00 34 1029.4
20260421134104 44 92 2.6 10.4 0.00 0.00 0.00 32 1029.8
20260421133103 44 292 2.6 10.4 0.00 0.00 0.00 34 1029.4
20260421132105 44 275 0.9 7.8 0.00 0.00 0.00 34 1029.4
20260421130104 42 118 0.9 5.2 0.00 0.00 0.00 43 1029.1
20260421125105 41 76 2.6 5.2 0.00 0.00 0.00 43 1029.1
20260421124106 40 347 1.7 2.6 0.00 0.00 0.00 53 1028.8
20260421123105 39 333 1.7 5.2 0.00 0.00 0.00 55 1028.8
20260421122105 39 0 2.6 2.6 0.00 0.00 0.00 61 1028.4
20260421121104 38 90 0.9 1.7 0.00 0.01 0.00 70 1028.4
20260421120104 37 338 0.0 1.7 0.00 0.01 0.00 66 1028.1
20260421115105 35 315 0.0 1.7 0.00 0.01 0.00 71 1027.7
20260421114105 33 315 0.0 1.7 0.00 0.01 0.00 75 1027.7
20260421112104 31 315 0.0 0.0 0.00 0.01 0.00 78 1027.4
20260421111105 30 315 0.0 1.7 0.00 0.01 0.00 81 1027.4
20260421110104 29 270 0.0 0.9 0.00 0.01 0.00 84 1027.4
20260421105104 29 270 0.0 0.9 0.00 0.01 0.00 86 1027.1
20260421104104 28 270 0.0 0.0 0.00 0.01 0.00 88 1027.1
20260421103104 28 270 0.0 1.7 0.00 0.01 0.00 87 1027.1
20260421102105 28 292 0.0 1.7 0.00 0.01 0.00 89 1026.7
20260421101103 27 292 0.0 0.9 0.00 0.01 0.00 90 1026.4
20260421095103 28 292 0.0 0.9 0.00 0.01 0.00 90 1026.4
20260421094103 28 292 0.9 1.7 0.00 0.01 0.00 88 1026.4
20260421093103 29 270 0.0 1.7 0.00 0.01 0.00 88 1026.4
20260421092104 29 270 0.0 0.0 0.00 0.01 0.00 88 1026.4
20260421091104 29 270 0.0 1.7 0.00 0.01 0.00 86 1026.0
20260421085105 29 292 0.0 0.0 0.00 0.01 0.00 87 1025.7
20260421084104 29 292 0.0 1.7 0.00 0.01 0.00 85 1025.7
20260421083105 30 292 2.6 1.7 0.00 0.01 0.00 83 1026.0
20260421082105 30 292 0.0 0.0 0.00 0.01 0.00 83 1025.7
20260421081103 30 292 0.0 0.0 0.00 0.01 0.00 84 1025.7
20260421080105 30 292 0.0 0.0 0.00 0.01 0.00 85 1025.7
20260421075104 30 292 0.0 0.0 0.00 0.01 0.00 86 1025.7
20260421073105 31 292 0.0 0.0 0.00 0.01 0.00 79 1026.0
20260421072103 32 292 0.0 0.0 0.00 0.01 0.00 78 1025.7
20260421071104 32 292 0.0 1.7 0.00 0.01 0.00 77 1025.7
20260421065104 33 292 0.0 1.7 0.00 0.01 0.00 74 1025.7
20260421064105 34 292 0.0 0.0 0.00 0.01 0.00 73 1025.7
20260421063104 34 292 0.0 1.7 0.00 0.01 0.00 72 1025.7
20260421062104 34 292 0.9 1.7 0.00 0.01 0.00 70 1025.7
20260421061106 35 292 0.0 1.7 0.00 0.01 0.00 67 1025.7